Location: N�rnberg
(49.4471°N, 11.0632°E)
Time: 16:30:39
(UTC+01:00)

ARIANE 6 FM1 Upper Stage - Pass Details

Date: 12 February 2026
Orbit: 523 x 607 km, 62.0° (Epoch: 7 March)

Event Time Altitude Azimuth Distance (km) Brightness Sun altitude
Rises 18:36:52 0° 316° (NW) 2,667 6.7 -11.3°
Reaches altitude 10° 18:39:28 10° 332° (NNW) 1,771 5.5 -11.8°
Maximum altitude 18:42:34 21° 24° (NNE) 1,209 4.1 -12.3°
Enters shadow 18:44:12 17° 57° (ENE) 1,389 4.1 -12.5°
